Miamisburg, OH

3:23 PM EST on December 03, 2016 (GMT -0500)
Dayton-Wright Brothers

Weather History for KMGY - January, 2014

Change the Weather History Date:

Thursday, January 2, 2014

  Actual Average (KFFO) Record (KFFO)
Temperature  
Mean Temperature 20 °F -  
Max Temperature 30 °F 37 °F 62 °F (2000)
Min Temperature 9 °F 22 °F 6 °F (2001)
Degree Days  
Heating Degree Days 45    
Moisture  
Dew Point 18 °F    
Average Humidity 86    
Maximum Humidity 100    
Minimum Humidity 73    
Precipitation  
Precipitation 0.23 in - - ()
Sea Level Pressure  
Sea Level Pressure 29.93 in    
Wind  
Wind Speed 10 mph (NNE)    
Max Wind Speed 22 mph    
Max Gust Speed 28 mph    
Visibility 2 miles    
Events Fog , Snow    
Averages and records for this station are not official NWS values.
T = Trace of Precipitation, MM = Missing Value Source: NWS Daily Summary

Daily Weather History Graph

Daily Weather History Graph

Search for Another Location

Airport or City:

Trip Planner

Search our weather history database for the weather conditions in past years. The results will help you decide how hot, cold, wet, or windy it might be!

Date:

Astronomy

Jan. 02, 2014 Rise Set
Actual Time 7:57 AM EST 5:24 PM EST
Civil Twilight 7:27 AM EST 5:54 PM EST
Nautical Twilight 6:53 AM EST 6:28 PM EST
Astronomical Twilight 6:21 AM EST 7:01 PM EST
Moon 8:38 AM EST (1/2) 7:19 PM EST (1/2)
Length of Visible Light 10h 27m
Length of Day
9h 26m
New Moon, 2% of the Moon is Illuminated
Jan 2
New Moon
Jan 7
First Quarter
Jan 15
Full
Jan 24
Last Quarter
Jan 30
New

Hourly Weather History & Observations

Time (EST) Temp. Windchill Dew Point Humidity Pressure Visibility Wind Dir Wind Speed Gust Speed Precip Events Conditions
12:53 AM 30.9 °F 24.3 °F 26.1 °F 82% 30.00 in 8.0 mi ENE 6.9 mph - N/A   Overcast
1:53 AM 30.0 °F 25.2 °F 26.1 °F 85% 29.99 in 7.0 mi East 4.6 mph - N/A   Overcast
2:53 AM 30.9 °F 26.2 °F 27.0 °F 85% 30.01 in 7.0 mi North 4.6 mph - N/A   Overcast
3:09 AM 30.2 °F 24.3 °F 26.6 °F 86% 29.98 in 2.5 mi North 5.8 mph - 0.00 in Snow Light Snow
3:19 AM 30.2 °F 24.3 °F 26.6 °F 86% 29.97 in 1.5 mi NNE 5.8 mph - 0.00 in Snow Light Snow
3:53 AM 28.9 °F 21.9 °F 27.0 °F 92% 29.98 in 1.0 mi NE 6.9 mph - 0.01 in Snow Light Snow
3:58 AM 28.4 °F 22.2 °F 28.4 °F 100% 29.95 in 0.8 mi NE 5.8 mph - 0.00 in Snow Light Snow
4:30 AM 28.4 °F 20.4 °F 28.4 °F 100% 29.92 in 0.5 mi ENE 8.1 mph - 0.03 in Fog , Snow Snow
4:53 AM 28.9 °F 21.9 °F 28.0 °F 96% 29.93 in 0.5 mi East 6.9 mph - 0.06 in Fog , Snow Snow
5:18 AM 28.4 °F 21.2 °F 28.4 °F 100% 29.88 in 0.8 mi East 6.9 mph - 0.02 in Snow Light Snow
5:26 AM 28.4 °F 22.2 °F 28.4 °F 100% 29.88 in 0.8 mi East 5.8 mph - 0.03 in Snow Light Snow
5:53 AM 28.9 °F 21.9 °F 28.0 °F 96% 29.89 in 0.8 mi ENE 6.9 mph - 0.05 in Snow Light Snow
6:22 AM 28.4 °F 21.2 °F 28.4 °F 100% 29.85 in 1.0 mi ENE 6.9 mph - 0.02 in Snow Light Snow
6:53 AM 28.9 °F 21.1 °F 28.0 °F 96% 29.86 in 1.0 mi ENE 8.1 mph - 0.03 in Snow Light Snow
7:15 AM 28.4 °F 22.2 °F 28.4 °F 100% 29.84 in 1.5 mi NE 5.8 mph - 0.01 in Snow Light Snow
7:41 AM 28.4 °F 22.2 °F 28.4 °F 100% 29.84 in 1.0 mi NE 5.8 mph - 0.02 in Snow Light Snow
7:53 AM 28.9 °F 22.8 °F 28.0 °F 96% 29.86 in 1.0 mi NE 5.8 mph - 0.03 in Snow Light Snow
8:12 AM 28.4 °F 21.2 °F 26.6 °F 93% 29.82 in 0.5 mi NE 6.9 mph - 0.00 in Fog , Snow Light Snow
8:28 AM 28.4 °F 21.2 °F 26.6 °F 93% 29.82 in 0.8 mi NNE 6.9 mph - 0.01 in Snow Light Snow
8:46 AM 28.4 °F 19.1 °F 26.6 °F 93% 29.83 in 0.5 mi NE 10.4 mph - 0.01 in Fog , Snow Snow
8:53 AM 28.0 °F 19.3 °F 26.1 °F 92% 29.85 in 0.5 mi NE 9.2 mph - 0.02 in Fog , Snow Snow
9:00 AM 28.4 °F 19.7 °F 26.6 °F 93% 29.82 in 0.5 mi NE 9.2 mph - 0.00 in Fog , Snow Snow
9:53 AM 27.0 °F 18.0 °F 25.0 °F 92% 29.87 in 0.5 mi NNE 9.2 mph - 0.02 in Fog , Snow Snow
10:05 AM 26.6 °F 18.2 °F 24.8 °F 93% 29.83 in 0.8 mi North 8.1 mph - 0.00 in Snow Light Snow
10:18 AM 26.6 °F 16.2 °F 24.8 °F 93% 29.83 in 0.5 mi North 11.5 mph - 0.00 in Fog , Snow Snow
10:26 AM 24.8 °F 14.0 °F 21.2 °F 86% 29.85 in 0.8 mi North 11.5 mph - 0.00 in Snow Light Snow
10:53 AM 25.0 °F 13.6 °F 21.9 °F 88% 29.88 in 0.8 mi North 12.7 mph - 0.01 in Snow Light Snow
11:14 AM 24.8 °F 14.0 °F 21.2 °F 86% 29.84 in 0.5 mi North 11.5 mph - 0.00 in Fog , Snow Snow
11:17 AM 24.8 °F 13.4 °F 21.2 °F 86% 29.83 in 0.5 mi North 12.7 mph - 0.00 in Fog , Snow Snow
11:41 AM 24.8 °F 11.9 °F 21.2 °F 86% 29.83 in 0.5 mi NNE 16.1 mph - 0.00 in Fog , Snow Snow
11:53 AM 24.1 °F 11.0 °F 21.0 °F 88% 29.86 in 0.5 mi North 16.1 mph 21.9 mph 0.00 in Fog , Snow Snow
12:27 PM 19.4 °F 5.0 °F 15.8 °F 86% 29.83 in 1.0 mi North 16.1 mph - 0.00 in Snow Light Snow
12:33 PM 19.4 °F 5.5 °F 15.8 °F 86% 29.83 in 1.8 mi North 15.0 mph - 0.00 in Snow Light Snow
12:40 PM 19.4 °F 4.1 °F 15.8 °F 86% 29.82 in 2.5 mi North 18.4 mph - 0.00 in Snow Light Snow
12:47 PM 19.4 °F 4.5 °F 15.8 °F 86% 29.82 in 3.0 mi North 17.3 mph - 0.00 in Snow Light Snow
12:53 PM 19.9 °F 6.7 °F 15.1 °F 81% 29.86 in 4.0 mi North 13.8 mph - 0.00 in Snow Light Snow
1:14 PM 19.4 °F 5.0 °F 15.8 °F 86% 29.83 in 2.0 mi North 16.1 mph 23.0 mph 0.00 in Snow Light Snow
1:28 PM 19.4 °F 5.5 °F 14.0 °F 80% 29.83 in 2.0 mi North 15.0 mph 24.2 mph 0.00 in Snow Light Snow
1:37 PM 17.6 °F 2.7 °F 14.0 °F 86% 29.84 in 1.2 mi North 16.1 mph 23.0 mph 0.00 in Snow Light Snow
1:53 PM 18.0 °F 2.2 °F 12.9 °F 81% 29.88 in 1.0 mi North 18.4 mph 24.2 mph 0.00 in Snow Light Snow
2:18 PM 17.6 °F 1.3 °F 12.2 °F 79% 29.86 in 1.5 mi North 19.6 mph 25.3 mph 0.00 in Snow Light Snow
2:22 PM 17.6 °F 2.7 °F 12.2 °F 79% 29.86 in 2.0 mi North 16.1 mph 25.3 mph 0.00 in Snow Light Snow
2:32 PM 17.6 °F 4.3 °F 12.2 °F 79% 29.86 in 6.0 mi North 12.7 mph 23.0 mph 0.00 in Snow Light Snow
2:53 PM 18.0 °F 3.6 °F 10.9 °F 74% 29.91 in 8.0 mi North 15.0 mph 24.2 mph 0.00 in Snow Light Snow
3:02 PM 17.6 °F 2.7 °F 10.4 °F 73% 29.88 in 4.0 mi North 16.1 mph 24.2 mph 0.00 in Snow Light Snow
3:15 PM 17.6 °F 2.7 °F 12.2 °F 79% 29.89 in 1.8 mi North 16.1 mph 21.9 mph 0.00 in Snow Light Snow
3:37 PM 17.6 °F 2.2 °F 12.2 °F 79% 29.90 in 0.8 mi North 17.3 mph 25.3 mph 0.00 in Snow Light Snow
3:50 PM 15.8 °F -0.2 °F 10.4 °F 79% 29.91 in 1.2 mi North 17.3 mph 24.2 mph 0.00 in Snow Light Snow
3:53 PM 16.0 °F 1.7 °F 10.9 °F 81% 29.96 in 1.0 mi North 13.8 mph 23.0 mph 0.00 in Snow Light Snow
4:20 PM 15.8 °F -0.2 °F 10.4 °F 79% 29.94 in 3.0 mi North 17.3 mph 23.0 mph 0.00 in Snow Light Snow
4:50 PM 15.8 °F -0.6 °F 10.4 °F 79% 29.96 in 1.8 mi North 18.4 mph 26.5 mph 0.00 in Snow Light Snow
4:51 PM 16.0 °F 0.1 °F 10.0 °F 77% 30.00 in 1.8 mi North 17.3 mph 26.5 mph 0.00 in Snow Light Snow
5:36 PM 15.8 °F 0.9 °F 8.6 °F 73% 30.00 in 2.0 mi North 15.0 mph 27.6 mph 0.00 in Snow Light Snow
5:45 PM 15.8 °F -0.2 °F 10.4 °F 79% 30.01 in 1.5 mi NNW 17.3 mph 24.2 mph 0.00 in Snow Light Snow
5:53 PM 15.1 °F -0.6 °F 10.0 °F 80% 30.06 in 1.8 mi NNW 16.1 mph 26.5 mph 0.00 in Snow Light Snow
6:11 PM 14.0 °F -3.0 °F 8.6 °F 79% 30.04 in 2.0 mi North 18.4 mph 27.6 mph 0.00 in Snow Light Snow
6:33 PM 14.0 °F -4.3 °F 8.6 °F 79% 30.05 in 1.5 mi North 21.9 mph 27.6 mph 0.00 in Snow Light Snow
6:53 PM 14.0 °F -3.0 °F 9.0 °F 80% 30.11 in 2.0 mi North 18.4 mph 26.5 mph 0.00 in Snow Light Snow
7:12 PM 14.0 °F -4.3 °F 8.6 °F 79% 30.08 in 3.0 mi North 21.9 mph 26.5 mph 0.00 in Snow Light Snow
7:30 PM 14.0 °F -1.4 °F 8.6 °F 79% 30.10 in 2.5 mi North 15.0 mph - 0.00 in Snow Light Snow
7:53 PM 14.0 °F 0.5 °F 10.0 °F 84% 30.16 in 2.0 mi NNW 11.5 mph - 0.00 in Snow Light Snow
8:30 PM 14.0 °F -2.0 °F 8.6 °F 79% 30.13 in 3.0 mi NNW 16.1 mph 23.0 mph 0.00 in Snow Light Snow
8:53 PM 12.9 °F -2.8 °F 8.1 °F 81% 30.19 in 3.0 mi NNW 15.0 mph 23.0 mph 0.00 in Snow Light Snow
9:53 PM 12.0 °F -5.1 °F 6.1 °F 77% 30.21 in 5.0 mi NNW 17.3 mph 25.3 mph 0.00 in Snow Light Snow
10:53 PM 10.0 °F -6.5 °F 5.0 °F 80% 30.25 in 8.0 mi NNW 15.0 mph 21.9 mph 0.00 in   Overcast
11:53 PM 9.0 °F -7.3 °F 3.0 °F 77% 30.28 in 10.0 mi NW 13.8 mph - 0.00 in   Overcast